Flag for Switzerland Weather past 2 weeks in Geneva, Geneva, Switzerland

Now
36 °F

Light rain. Overcast.


Feels Like: 26 °F
Forecast: 35 / 40 °F
Wind: 16 mph from Southwest

Location: Geneve-Cointrin

Current Time: Jan 29, 2015 at 1:54:33 AM

Latest Report: Jan 29, 2015 at 1:00 AM


Visibility: 4 mi

Pressure: 29.84 "Hg

Humidity: 87%

Dew point: 33 °F

Location of GenevaLocation

Historic Weather in Geneva — Graph

°F

Geneva temperature yesterday

Maximum temperature yesterday: 39 °F (at 3:00 PM)
Minimum temperature yesterday: 27 °F (at 6:00 AM)
Average temperature yesterday: 33 °F

Past Weeks' High & Low Weather Summary

 TemperatureHumidityPressure
High51 °F (Jan 15, 4:00 PM)97% (Jan 20, 5:00 AM)30.42 "Hg (Jan 20, 5:00 AM)
Low25 °F (Jan 18, 6:00 AM)46% (Jan 25, 4:00 PM)29.72 "Hg (Jan 16, 3:00 PM)
Average36 °F79%30.08 "Hg
* Reported Midnight between Jan 13 and Jan 14 — Midnight between Jan 28 and Jan 29, Geneva, Weather by CustomWeather, © 2014

Note: Actual official high and low records may vary slightly from our data, if they occured in-between our weather recording intervals... More about our weather records

Advertising

Geneva weather history for previous 24 hours

 ConditionsComfort  
Time TempWeatherWind HumidityBarometerVisibility
12:00 AM
Jan 29
36 °FChilly.16 mph85%29.86 "HgN/A
11:00 PM
Jan 28
34 °FChilly.12 mph90%29.91 "HgN/A
10:00 PM35 °FLight rain. Overcast.9 mph87%29.95 "Hg4 mi
9:00 PM36 °FChilly.12 mph80%29.98 "HgN/A
8:00 PM37 °FChilly.8 mph73%30.01 "HgN/A
7:00 PM37 °FOvercast.10 mph70%30.03 "Hg16 mi
6:00 PM36 °FChilly.7 mph72%30.04 "HgN/A
5:00 PM38 °FChilly.8 mph66%30.08 "HgN/A
4:00 PM37 °FOvercast.8 mph67%30.09 "Hg19 mi
3:00 PM39 °FChilly.7 mph63%30.10 "HgN/A
2:00 PM38 °FChilly.8 mph63%30.16 "HgN/A
1:00 PM37 °FOvercast.8 mph69%30.19 "Hg22 mi
12:00 PM37 °FChilly.5 mph70%30.22 "HgN/A
11:00 AM35 °FChilly.1 mph75%30.24 "HgN/A
10:00 AM34 °FOvercast.3 mph79%30.24 "Hg19 mi
9:00 AM29 °FChilly.1 mph89%30.27 "HgN/A
8:00 AM27 °FChilly.2 mph88%30.26 "HgN/A
7:00 AM30 °FOvercast.2 mph84%30.25 "Hg12 mi
6:00 AM27 °FChilly.2 mph90%30.26 "HgN/A
5:00 AM28 °FChilly.1 mph88%30.27 "HgN/A
4:00 AM27 °FPassing clouds.2 mph86%30.29 "Hg16 mi
3:00 AM28 °FChilly.1 mph87%30.31 "HgN/A
2:00 AM29 °FChilly.1 mph84%30.31 "HgN/A
1:00 AM30 °FOvercast.2 mph81%30.32 "Hg22 mi
Weather by CustomWeather, © 2014

See weather overviewHow to use our weather pages